Regional Weather Roundup
Issued by NWS

Home | Current Version | Previous Version | Graphics & Text | Print | Product List | Glossary On
Versions: 1 2 3 4 5 6 7 8 9 10 11 12 13 14 15 16 17 18 19 20 21 22 23 24 25 26 27 28 29 30 31 32 33 34 35 36 37 38 39 40 41 42 43 44 45 46 47 48 49 50
000
ASUS43 KDMX 192207
RWRIA

WEATHER ROUNDUP FOR IOWA
NATIONAL WEATHER SERVICE DES MOINES IA
500 PM CDT SUN APR 19 2015

NOTE: "FAIR" INDICATES FEW OR NO CLOUDS BELOW 12,000 FEET WITH NO
SIGNIFICANT WEATHER AND/OR OBSTRUCTIONS TO VISIBILITY.

* - THESE STATIONS ARE NOT NWS STATIONS...THUS NOT UNDER NWS
QUALITY CONTROL.  THEY ALSO DO NOT REPORT WEATHER SUCH
AS PRECIPITATION OR FOG.

IAZ001>003-012>014-020>022-031>034-043>046-192300-
   NORTHWEST IOWA

CITY           SKY/WX    TMP DP  RH WIND       PRES   REMARKS
CARROLL *      RAIN      50  50 100 NW25G32   29.65R
CHEROKEE *     LGT RAIN  48  45  87 NW10G20   29.70S
DENISON *      LGT RAIN  48  48 100 NW20G29   29.68R
LE MARS *      PTSUNNY   54  37  54 N22G28    29.72F
ORANGE CITY *  MOSUNNY   52  37  58 N17G23    29.71F
SHELDON *      PTSUNNY   50  41  71 N20       29.69F
SIOUX CITY     CLOUDY    56  36  47 NW31G38   29.71F
SPENCER        LGT RAIN  50  43  77 NW21G28   29.69R
STORM LAKE *   CLOUDY    48  45  87 NW25G32   29.69S
$$

IAZ055>058-069>071-079>083-090>094-192300-
   SOUTHWEST IOWA

CITY           SKY/WX    TMP DP  RH WIND       PRES   REMARKS
ATLANTIC *     LGT RAIN  50  50 100 NW26G33   29.65S
AUDUBON *      LGT RAIN  50  46  87 NW23G37   29.65R
CLARINDA *     CLOUDY    52  48  87 NW20G26   29.67S
COUNCIL BLFS * CLOUDY    48  48 100 NW24G35   29.70S
CRESTON *      LGT RAIN  52  52 100 NW24G35   29.61R
HARLAN  *      RAIN      48  48 100 NW28G37   29.70R
LAMONI         CLOUDY    56  53  90 NW18G26   29.56S
RED OAK *      DRIZZLE   50  48  93 NW22G32   29.68R
SHENANDOAH *   CLOUDY    52  48  87 NW23G31   29.69S
$$

IAZ047>049-059>061-072>074-084-192300-
   CENTRAL IOWA

CITY           SKY/WX    TMP DP  RH WIND       PRES   REMARKS
AMES           LGT RAIN  53  51  93 NW31G37   29.56R
ANKENY *       HVY RAIN  55  54  94 N28G35    29.54S
CHARITON *     LGT RAIN  57  55  94 NW24G30   29.53F
DES MOINES     LGT RAIN  55  51  86 NW21G35   29.56R FOG
GRINNELL*      CLOUDY    63  57  82 NW8       29.49F
KNOXVILLE *    LGT RAIN  57  54  88 NW12      29.51F
MARSHALLTOWN   CLOUDY    62  56  80 NW6       29.50F
PELLA *        HVY RAIN  57  57 100 W9        29.53F
PERRY *        RAIN      52  50  93 NW28G35   29.61R
$$

IAZ004>006-015-016-023>025-035-036-192300-
   NORTH CENTRAL IOWA

CITY           SKY/WX    TMP DP  RH WIND       PRES   REMARKS
ALGONA *       LGT RAIN  50  50 100 NW25G33   29.64R
CLARION *      RAIN      50  50 100 NW30G39   29.60R
ESTHERVILLE    CLOUDY    49  41  74 NW23G32   29.67R
FORT DODGE *   CLOUDY    48  45  87 NW12G21   29.64S
MASON CITY     LGT RAIN  51  49  92 N25G37    29.58S
FOREST CITY *  RAIN      48  48 100 NW26G37   29.58F
IOWA FALLS *   HVY RAIN  54  52  94 NW28G33   29.57R
$$

IAZ007>011-017>019-026>030-037>042-050>054-066-192300-
   NORTHEAST IOWA

CITY           SKY/WX    TMP DP  RH WIND       PRES   REMARKS
CEDAR RAPIDS   LGT RAIN  63  56  78 N9        29.45F
CHARLES CITY * HVY RAIN  59  59 100 N8        29.53F
CLINTON *      CLOUDY    59  52  77 SE9       29.51F
DECORAH *      CLOUDY    55  50  82 NE5       29.51F
DUBUQUE        CLOUDY    73  44  35 E10       29.47F
MONTICELLO *   PTSUNNY   73  48  40 E6        29.45F
OELWEIN *      LGT RAIN  61  55  82 E7        29.51F
WATERLOO       CLOUDY    61  55  81 N5        29.50F
$$

IAZ064-065-067-068-078-192300-
   EAST CENTRAL IOWA

CITY           SKY/WX    TMP DP  RH WIND       PRES   REMARKS
DAVENPORT      CLOUDY    61  50  67 SE18      29.49F
IOWA CITY      CLOUDY    69  51  52 NE5       29.45F
MT. PLEASANT * CLOUDY    63  55  77 SE10      29.48S
MUSCATINE *    PTSUNNY   64  54  68 SE13G23   29.48S
QUAD CITIES    RAIN      58  52  80 SE7       29.48
$$

IAZ062-063-075>077-085>089-095>099-192300-
   SOUTHEAST IOWA

CITY           SKY/WX    TMP DP  RH WIND       PRES   REMARKS
BURLINGTON     CLOUDY    61  59  93 SE5       29.49F FOG
FAIRFIELD *    CLOUDY    68  54  60 SW3       29.48S
FORT MADISON * CLOUDY    63  57  82 SE10      29.50S
KEOKUK *       LGT RAIN  59  57  94 SW9       29.50R
OSKALOOSA *    HVY RAIN  55  54  94 W12       29.52R
CENTERVILLE *  LGT RAIN  57  57 100 N3        29.53F
OTTUMWA        TSTM      56  55  97 W10       29.51S FOG
WASHINGTON *   CLOUDY    68  59  73 SE3       29.46F
$$

ABBREVIATIONS USED IN REMARKS
   TC - TEMPERATURES IN CELSIUS
  WCI - WIND CHILL INDEX
   HX - HEAT INDEX
  VSB - VISIBILITY
$$



USA.gov is the U.S. government's official web portal to all federal, state and local government web resources and services.